EW6566 Weather Reports


time (UTC)temp
C
wind
direction
speed
KPH
gust
KPH
rain 1hr
cm
rain 24hr
cm
rain mn
cm
humidity
%
barometer
mb
20260507002519 8 0.0 0.0 0.00 0.00 0.00 77 1013.7
20260507001519 9 0.0 0.0 0.00 0.00 0.00 77 1013.7
20260507000539 9 0.0 0.0 0.00 0.00 0.00 76 1013.6
20260506235519 9 0.0 0.0 0.00 0.00 0.00 75 1013.6
20260506234519 10 0.0 0.0 0.00 0.00 0.00 74 1013.6
20260506233519 10 0.0 0.0 0.00 0.00 0.00 73 1013.5
20260506232539 10 0.0 0.0 0.00 0.00 0.00 70 1013.5
20260506231519 10 0.0 0.0 0.00 0.00 0.00 69 1013.5
20260506230519 10 0.0 0.0 0.00 0.00 0.00 69 1013.5
20260506225519 10 0.0 0.0 0.00 0.00 0.00 69 1013.4
20260506224519 10 0.0 0.0 0.00 0.00 0.00 69 1013.3
20260506223519 10 0.0 0.0 0.00 0.00 0.00 68 1013.4
20260506222519 11 0.0 0.0 0.00 0.00 0.00 68 1013.2
20260506221539 11 0.0 0.0 0.00 0.00 0.00 67 1013.3
20260506220518 11 0.0 0.0 0.00 0.00 0.00 67 1013.2
20260506215519 11 0.0 0.0 0.00 0.00 0.00 66 1013.0
20260506214519 11 0.0 0.0 0.00 0.00 0.00 65 1013.0
20260506213526 11 0.0 0.0 0.00 0.00 0.00 64 1012.9
20260506212524 11 0.0 0.0 0.00 0.00 0.00 64 1012.8
20260506211518 11 0.0 0.0 0.00 0.00 0.00 63 1012.6
20260506210519 11 0.0 0.0 0.00 0.00 0.00 63 1012.6
20260506205519 11 0.0 0.0 0.00 0.00 0.00 62 1012.5
20260506204520 11 0.0 0.0 0.00 0.00 0.00 62 1012.4
20260506203519 11 0.0 0.0 0.00 0.00 0.00 62 1012.3
20260506202519 12 0.0 0.0 0.00 0.00 0.00 63 1012.2
20260506201519 12 0.0 0.0 0.00 0.00 0.00 63 1012.2
20260506200519 12 0.0 0.0 0.00 0.00 0.00 63 1012.2
20260506195539 12 0.0 0.0 0.00 0.00 0.00 63 1012.1
20260506194519 12 0.0 0.0 0.00 0.00 0.00 64 1012.0
20260506193519 12 0.0 0.0 0.00 0.00 0.00 63 1012.0
20260506192539 12 0.0 0.0 0.00 0.00 0.00 63 1011.8
20260506191518 12 0.0 0.0 0.00 0.00 0.00 64 1011.6
20260506190559 12 0.0 0.0 0.00 0.00 0.00 63 1011.5
20260506185539 12 0.0 0.0 0.00 0.00 0.00 62 1011.3
20260506184519 12 0.0 0.0 0.00 0.00 0.00 59 1011.2
20260506183519 12 0.0 0.0 0.00 0.00 0.00 57 1011.2
20260506182519 12 0.0 0.0 0.00 0.00 0.00 55 1011.1
20260506181519 12 0.0 0.0 0.00 0.00 0.00 55 1011.0
20260506180519 12 0.0 0.0 0.00 0.00 0.00 54 1010.9
20260506175519 13 0.0 0.0 0.00 0.00 0.00 54 1010.9
20260506174519 13 0.0 0.0 0.00 0.00 0.00 53 1010.8
20260506173519 13 0.0 0.0 0.00 0.00 0.00 53 1010.7
20260506172519 13 0.0 0.0 0.00 0.00 0.00 52 1010.4
20260506171519 13 0.0 0.0 0.00 0.00 0.00 53 1010.4
20260506170519 13 0.0 0.0 0.00 0.00 0.00 53 1010.3
20260506165519 13 0.0 0.0 0.00 0.00 0.00 54 1010.4
20260506164538 13 0.0 0.0 0.00 0.00 0.00 51 1010.4
20260506163519 13 0.0 0.0 0.00 0.00 0.00 52 1010.4
20260506162538 13 0.0 0.0 0.00 0.00 0.00 51 1010.3
20260506161519 13 0.0 0.0 0.00 0.00 0.00 51 1010.2
20260506160519 13 0.0 0.0 0.00 0.00 0.00 51 1010.3
20260506155539 13 0.0 0.0 0.00 0.00 0.00 49 1010.3
20260506154538 13 0.0 0.0 0.00 0.00 0.00 50 1010.4
20260506153518 13 0.0 0.0 0.00 0.00 0.00 50 1010.3
20260506152519 13 0.0 0.0 0.00 0.00 0.00 51 1010.3
20260506151519 13 0.0 0.0 0.00 0.00 0.00 51 1010.2
20260506150518 13 0.0 0.0 0.00 0.00 0.00 52 1010.3
20260506145519 13 0.0 0.0 0.00 0.00 0.00 52 1010.2
20260506144519 13 0.0 0.0 0.00 0.00 0.00 51 1010.2
20260506143538 13 0.0 0.0 0.00 0.00 0.00 52 1010.2
20260506142518 13 0.0 0.0 0.00 0.00 0.00 50 1010.2
20260506141518 13 0.0 0.0 0.00 0.00 0.00 51 1010.2
20260506140539 13 0.0 0.0 0.00 0.00 0.00 50 1010.1
20260506135518 13 0.0 1.6 0.00 0.00 0.00 49 1010.0
20260506134519 13 0.0 0.0 0.00 0.00 0.00 49 1010.1
20260506133538 13 0.0 0.0 0.00 0.00 0.00 50 1009.9
20260506132518 13 0.0 0.0 0.00 0.00 0.00 50 1010.0
20260506131518 13 0.0 0.0 0.00 0.00 0.00 49 1010.0
20260506130518 13 0.0 0.0 0.00 0.00 0.00 50 1010.0
20260506125518 13 0.0 0.0 0.00 0.00 0.00 49 1009.9
20260506124518 13 0.0 0.0 0.00 0.00 0.00 46 1009.8
20260506123518 13 0.0 0.0 0.00 0.00 0.00 46 1009.9
20260506122518 13 0.0 0.0 0.00 0.00 0.00 46 1009.8
20260506121518 13 0.0 0.0 0.00 0.00 0.00 46 1009.8
20260506120526 13 0.0 0.0 0.00 0.00 0.00 48 1009.8
20260506115518 13 0.0 0.0 0.00 0.00 0.00 48 1009.7
20260506114518 13 0.0 0.0 0.00 0.00 0.00 48 1009.7
20260506113518 13 0.0 0.0 0.00 0.00 0.00 50 1009.8
20260506112518 13 0.0 0.0 0.00 0.00 0.00 52 1009.6
20260506111518 13 0.0 0.0 0.00 0.00 0.00 57 1009.6
20260506110518 13 0.0 0.0 0.00 0.00 0.00 57 1009.6
20260506105518 13 0.0 0.0 0.00 0.00 0.00 56 1009.5
20260506104517 13 0.0 0.0 0.00 0.00 0.00 56 1009.5
20260506103518 13 0.0 0.0 0.00 0.00 0.00 58 1009.5
20260506102518 12 0.0 0.0 0.00 0.00 0.00 66 1009.5
20260506101518 13 0.0 0.0 0.00 0.00 0.00 67 1009.4
20260506100518 13 0.0 0.0 0.00 0.00 0.00 65 1009.4
20260506095518 13 0.0 0.0 0.00 0.00 0.00 62 1009.3
20260506094518 13 0.0 0.0 0.00 0.00 0.00 58 1009.3
20260506093518 14 0.0 0.0 0.00 0.00 0.00 57 1009.2
20260506092518 14 0.0 0.0 0.00 0.00 0.00 56 1009.2
20260506091538 14 0.0 0.0 0.00 0.00 0.00 58 1009.1
20260506090518 14 0.0 0.0 0.00 0.00 0.00 59 1009.1
20260506085518 14 0.0 0.0 0.00 0.00 0.00 60 1009.1
20260506084518 14 0.0 0.0 0.00 0.00 0.00 62 1009.1
20260506083518 13 0.0 0.0 0.00 0.00 0.00 61 1009.1
20260506082518 13 0.0 0.0 0.00 0.00 0.00 61 1009.0
20260506081518 13 0.0 0.0 0.00 0.00 0.00 60 1008.9
20260506080518 13 0.0 0.0 0.00 0.00 0.00 61 1009.0
20260506073518 13 0.0 0.0 0.00 0.00 0.00 62 1008.8
20260506072518 13 0.0 0.0 0.00 0.00 0.00 63 1008.7
20260506071518 13 0.0 0.0 0.00 0.00 0.00 65 1008.7
20260506070518 13 0.0 0.0 0.00 0.00 0.00 70 1008.8
20260506061538 11 0.0 0.0 0.00 0.00 0.00 84 1008.5
20260506060538 11 0.0 0.0 0.00 0.00 0.00 84 1008.3
20260506050520 10 0.0 0.0 0.00 0.00 0.00 84 1008.3
20260506044520 10 0.0 0.0 0.00 0.00 0.00 84 1008.5
20260506043519 10 0.0 0.0 0.00 0.00 0.00 84 1008.5
20260506042539 10 0.0 0.0 0.00 0.00 0.00 84 1008.5
20260506041520 10 0.0 0.0 0.00 0.00 0.00 84 1008.5
20260506040519 10 0.0 0.0 0.00 0.00 0.00 84 1008.5
20260506035519 10 0.0 0.0 0.00 0.00 0.00 84 1008.6
20260506034519 10 0.0 0.0 0.00 0.00 0.00 83 1008.7
20260506033519 10 0.0 0.0 0.00 0.00 0.00 82 1008.7
20260506032519 10 0.0 0.0 0.00 0.00 0.00 81 1008.7
20260506031520 10 0.0 0.0 0.00 0.00 0.00 81 1008.8
20260506030519 10 0.0 0.0 0.00 0.00 0.00 81 1008.9
20260506025519 10 0.0 0.0 0.00 0.00 0.00 81 1009.0
20260506024519 10 0.0 0.0 0.00 0.00 0.00 81 1009.1
20260506023519 10 0.0 0.0 0.00 0.00 0.00 81 1009.0
20260506022519 10 0.0 0.0 0.00 0.00 0.00 81 1009.1
20260506021520 10 0.0 0.0 0.00 0.00 0.00 81 1009.1
20260506020519 10 0.0 0.0 0.00 0.00 0.00 80 1009.1
20260506015519 10 0.0 0.0 0.00 0.00 0.00 79 1009.2
20260506014519 10 0.0 0.0 0.00 0.00 0.00 78 1009.1
20260506013519 10 0.0 0.0 0.00 0.00 0.00 78 1009.2
20260506012521 10 0.0 0.0 0.00 0.00 0.00 78 1009.1
20260506011520 10 0.0 0.0 0.00 0.00 0.00 78 1009.2
20260506010520 10 0.0 0.0 0.00 0.00 0.00 79 1009.4
20260506005519 10 0.0 0.0 0.00 0.00 0.00 80 1009.4
20260506004519 10 0.0 0.0 0.00 0.00 0.00 79 1009.6
20260506003519 10 0.0 0.0 0.00 0.00 0.00 79 1009.6